This is the latest recevied weather packets stored in our database for station/object KD7KCN-5. If no packets are shown the sender has not sent any weather packets the latest 10 day(s).
| Time | Temp. | Humidity | Pressure | Rain* | Wind** | Luminosity | Snow |
|---|---|---|---|---|---|---|---|
| 1777936310 | 15.56° C | 27% | 1008.1 hPa | 0 mm | - | 338 W/m² | - |
| 1777935712 | 15.56° C | 27% | 1008 hPa | 0 mm | - | 390 W/m² | - |
| 1777935110 | 16.11° C | 27% | 1007.8 hPa | 0 mm | - | 323 W/m² | - |
| 1777934512 | 16.67° C | 26% | 1007.5 hPa | 0 mm | - | 454 W/m² | - |
| 1777933910 | 16.11° C | 30% | 1008 hPa | 0 mm | - | 394 W/m² | - |
| 1777933313 | 16.11° C | 30% | 1008.5 hPa | 0 mm | - | 441 W/m² | - |
| 1777932710 | 16.67° C | 30% | 1008.7 hPa | 0 mm | - | 563 W/m² | - |
| 1777932111 | 16.67° C | 28% | 1008.8 hPa | 0 mm | - | 824 W/m² | - |
| 1777931511 | 16.67° C | 28% | 1008.8 hPa | 0 mm | - | 640 W/m² | - |
| 1777930910 | 16.67° C | 27% | 1008.9 hPa | 0 mm | - | 410 W/m² | - |
| 1777930310 | 16.67° C | 28% | 1009.1 hPa | 0 mm | - | 515 W/m² | - |
| 1777929710 | 16.67° C | 29% | 1009.1 hPa | 0 mm | - | 568 W/m² | - |
| 1777929110 | 16.11° C | 28% | 1009.4 hPa | 0 mm | - | 668 W/m² | - |
| 1777928511 | 16.11° C | 28% | 1009.3 hPa | 0 mm | - | 635 W/m² | - |
| 1777927911 | 16.67° C | 29% | 1009.2 hPa | 0 mm | - | 679 W/m² | - |
| 1777927310 | 16.11° C | 28% | 1009.2 hPa | 0 mm | - | 594 W/m² | - |
| 1777926710 | 16.11° C | 29% | 1009.2 hPa | 0 mm | - | 770 W/m² | - |
| 1777926111 | 16.11° C | 31% | 1009.2 hPa | 0 mm | - | 555 W/m² | - |
| 1777925510 | 16.11° C | 32% | 1009.1 hPa | 0 mm | - | 629 W/m² | - |
| 1777924911 | 16.11° C | 33% | 1009.1 hPa | 0 mm | - | 744 W/m² | - |
| 1777924311 | 16.11° C | 32% | 1008.9 hPa | 0 mm | - | 594 W/m² | - |
| 1777923711 | 16.67° C | 32% | 1009.3 hPa | 0 mm | - | 779 W/m² | - |
| 1777923112 | 16.67° C | 36% | 1009.1 hPa | 0 mm | - | 378 W/m² | - |
| 1777922511 | 16.67° C | 36% | 1009.2 hPa | 0 mm | - | 918 W/m² | - |
| 1777921911 | 15.56° C | 37% | 1009.4 hPa | 0 mm | - | 575 W/m² | - |
* Rain latest hour (hover to see other rain measurements)
** Current wind speed in m/s (hover to see current wind gust speed)